Location: Lhota
(50.0887°N, 14.0116°E)
Time: 16:30:15
(UTC+00:00)

Cosmos 1980 Rocket - Pass Details

Date: 19 May 2025
Orbit: 829 x 847 km, 71.0° (Epoch: 17 June)

Event Time Altitude Azimuth Distance (km) Brightness Sun altitude
Rises 20:45:40 0° 330° (NNW) 3,383 7.4 -13.9°
Reaches altitude 10° 20:48:06 10° 331° (NNW) 2,447 6.1 -14.1°
Maximum altitude 20:53:44 89° 60° (ENE) 839 2.2 -14.6°
Enters shadow 20:57:25 23° 152° (SSE) 1,723 3.2 -14.8°
